www.pogodaiklimat.ru

Погода и климат >> Архив погоды >> Россия >> Татарстан >> Казань


АРХИВ ПОГОДЫ в Казани

Время (UTC), дата Ветер
(напр.,м/с)
 
Видим.   Явления Облачность Т
(С)
Тd
(С)
f
(%)
Тe
(С)
Тes
(С)
Комфортность P
(гПа)
Po
(гПа)
Тmin
(С)
Tmax
(С)
R
(мм)
R24
(мм)
S
(см)
21 8.02 З 2 10 км 10/10 600 м
[Sc]
-3.9 -6.1 85 -8 -8 тепло 1024.3 1009.3
00 9.02 З 2 10 км 10/10 600 м
[Sc]
-4.4 -6.1 88 -9 -9 тепло 1024.5 1009.4
03 9.02 Ю 1 10 км 10/10 600 м
[Sc]
-5.2 -6.8 88 -8 -8 тепло 1024.3 1009.2 -5.2 56
06 9.02 Ю 1 4000 м дымка 10/10 300 м
[St]
-6.0 -6.8 94 -8 -8 тепло 1023.9 1008.7 -6.0
09 9.02 ЮЗ 3 10 км 9/6 600 м
[Sc Ac trans]
-4.4 -7.3 80 -10 -9 по сезону 1023.3 1008.2
12 9.02 ЮЗ 1 10 км 10/8 600 м
[Sc Ac As]
-2.4 -6.7 72 -4 -4 тепло 1022.3 1007.4
15 9.02 ЮЗ 3 10 км 10/10 600 м
[Sc]
-2.8 -6.4 76 -8 -8 тепло 1022.2 1007.2 -2.3
18 9.02 ЮЗ 4 10 км 10/10 600 м
[Sc]
-3.6 -6.7 79 -10 -10 по сезону 1022.1 1007.1
21 9.02 З 3 10 км 10/10 600 м
[Sc]
-5.1 -7.4 84 -11 -11 по сезону 1022.6 1007.5
00 10.02 З 3 10 км 10/0
[As op]
-5.6 -7.6 86 -11 -11 по сезону 1023.1 1008.0
03 10.02 ЮЗ 2 10 км 10/0
[As op]
-6.2 -8.2 86 -11 -11 по сезону 1023.5 1008.3 -6.2 55
06 10.02 З 3 10 км слаб. снег 10/10 600 м
[Sc diur, vesp]
-7.0 -9.2 84 -13 -13 по сезону 1024.4 1009.1 -6.9
09 10.02 З 2 10 км в посл. час снег 10/10 600 м
[Sc diur, vesp]
-7.0 -10.0 79 -11 -11 по сезону 1024.1 1008.9
12 10.02 ЮЗ 3 10 км {снег} 10/0
[As op]
-6.7 -10.3 76 -12 -12 по сезону 1023.4 1008.2
15 10.02 Ю 1 10 км в посл. час снег 8/0
[Ac trans]
-7.9 -10.3 83 -10 -10 по сезону 1023.5 1008.3 -6.2 0.0
18 10.02 Ю 1 10 км 10/0
[As op]
-9.9 -11.9 85 -12 -12 по сезону 1023.5 1008.1
21 10.02 ЮВ 2 10 км 10/0
[As op]
-10.1 -11.9 87 -15 -15 по сезону 1023.2 1007.8
00 11.02 Ю 2 10 км 10/0
[As op]
-10.5 -12.2 87 -15 -15 по сезону 1023.4 1007.9
03 11.02 Ю 1 10 км {снег} 10/0
[As op]
-9.5 -11.4 86 -12 -12 по сезону 1023.7 1008.3 -10.7 0.0 55
06 11.02 Ю 1 10 км слаб. снег 10/6 300 м
[Sc As op]
-9.7 -11.5 87 -12 -12 по сезону 1024.7 1009.3
09 11.02 Ю 1 10 км {снег} 9/9 300 м
[Sc]
-9.2 -12.3 78 -11 -11 по сезону 1024.7 1009.3
12 11.02 Ю 1 10 км в посл. час снег 10/6 600 м
[Sc As op]
-7.8 -10.1 84 -10 -10 по сезону 1024.8 1009.5
15 11.02 В 1 10 км 10/0
[Ac trans Ci fib]
-8.2 -11.4 78 -10 -10 по сезону 1025.9 1010.5 -7.1 0.0
18 11.02 ЮВ 2 10 км 8/8 600 м
[Sc]
-9.3 -13.3 73 -14 -14 по сезону 1026.5 1011.1
21 11.02 ЮВ 2 10 км ясно -12.6 -15.8 77 -17 -17 по сезону 1027.0 1011.4
00 12.02 ЮВ 3 10 км 10/6 600 м
[Sc As op]
-11.3 -14.2 79 -17 -17 по сезону 1026.8 1011.3
03 12.02 Ю 2 10 км 9/6 600 м
[Sc diur, vesp Ac trans]
-9.7 -12.1 83 -14 -14 по сезону 1026.9 1011.5 -13.1 53
06 12.02 ЮВ 2 10 км 10/10 600 м
[Sc]
-8.5 -12.0 76 -13 -13 по сезону 1026.8 1011.5
09 12.02 Ю 2 10 км 10/10 600 м
[Sc]
-7.3 -13.6 61 -11 -11 по сезону 1027.2 1011.9
12 12.02 Ю 2 10 км 10/5 600 м
[Sc As op]
-6.8 -13.1 61 -11 -11 по сезону 1026.9 1011.7
15 12.02 Ю 1 10 км 10/0
[As op]
-6.5 -11.1 70 -9 -9 по сезону 1027.5 1012.2 -6.5
18 12.02 ЮВ 3 10 км 10/10 600 м
[Sc]
-6.5 -11.8 66 -12 -12 по сезону 1027.4 1012.1
21 12.02 В 1 10 км 9/3 600 м
[Sc Ac trans]
-8.0 -12.6 69 -10 -10 по сезону 1027.9 1012.5
00 13.02 ЮВ 2 10 км 10/5 600 м
[Sc Ac und]
-9.6 -13.4 74 -14 -14 по сезону 1027.6 1012.2
03 13.02 Ю 2 10 км 10/5 600 м
[Sc Ac und]
-10.9 -14.5 75 -15 -15 по сезону 1026.2 1010.7 -10.9 53
06 13.02 ЮВ 5-10
{10}
10 км 10/8 600 м
[Sc Ac As]
-11.9 -15.2 76 -20 -20 прохладно 1025.8 1010.2 -12.0
09 13.02 ЮВ 4-10
{11}
10 км позёмок 10/0
[As op]
-10.7 -15.1 70 -18 -17 по сезону 1025.1 1009.6
12 13.02 ЮВ 4
{12}
10 км позёмок 10/6 600 м
[Sc As op]
-8.3 -10.7 83 -15 -15 по сезону 1022.3 1007.0
15 13.02 ЮВ 4-10
{11}
10 км слаб. снег {метель} 10/8 600 м
[Sc As op]
-6.7 -8.1 90 -13 -13 по сезону 1019.5 1004.3 -6.7 0.0
18 13.02 Ю 2
{10}
2000 м снег {метель} 10/0 600 м
[As op]
-5.7 -6.6 93 -10 -10 по сезону 1018.4 1003.3
21 13.02 ЮВ 2
{10}
10 км в посл. час снег {метель} 10/10 600 м
[Sc]
-6.8 -8.4 88 -11 -11 по сезону 1018.3 1003.1
00 14.02 Ю 2 10 км позёмок {снег} 10/6 600 м
[Sc As op]
-6.7 -8.3 88 -11 -11 по сезону 1017.3 1002.2
03 14.02 Ю 2 10 км {снег} 10/10 600 м
[Sc]
-6.6 -8.1 89 -11 -11 по сезону 1017.0 1001.8 -6.9 2 53
06 14.02 ЮВ 1 2000 м снег 10/10 600 м
[Sc diur, vesp]
-5.0 -6.0 93 -7 -7 тепло 1016.8 1001.8
09 14.02 Ю 1 10 км слаб. снег 10/10 600 м
[Sc diur, vesp]
-2.9 -3.5 96 -5 -5 тепло 1016.7 1001.8
12 14.02 З 3 10 км {снег} 10/10 600 м
[Sc diur, vesp]
-1.8 -3.7 87 -7 -7 тепло 1017.4 1002.5
15 14.02 З 3 10 км в посл. час снег 9/6 600 м
[Sc diur, vesp Ac trans]
-2.4 -3.4 93 -8 -8 тепло 1018.7 1003.8 -1.4 3
18 14.02 З 3 10 км {снег} 10/0
[As op]
-2.7 -4.8 85 -8 -8 тепло 1020.0 1005.1
21 14.02 СЗ 3 10 км 10/0
[As op]
-4.7 -8.7 74 -10 -10 по сезону 1021.5 1006.4
00 15.02 З 3 10 км 9/0
[Ac trans]
-6.1 -9.5 77 -12 -12 по сезону 1022.2 1007.0
03 15.02 З 3 10 км слаб. снег 10/0
[As op]
-7.1 -9.9 80 -13 -13 по сезону 1020.7 1005.5 -7.1 0.0 55
06 15.02 ЮЗ 2 10 км слаб. снег 10/0
[As op]
-7.1 -9.6 82 -11 -11 по сезону 1018.4 1003.2 -7.4
09 15.02 Ю 2 10 км {снег} 10/9 600 м
[Sc As op]
-5.1 -8.2 79 -9 -9 по сезону 1013.7 998.8
12 15.02 Ю 2 1000 м сильн. снег 10/0
[As op]
-4.9 -5.9 93 -9 -9 по сезону 1007.8 992.9
15 15.02 ЮЗ 4 10 км слаб. снег 10/0 600 м
[As op]
-4.1 -4.6 96 -11 -11 по сезону 1003.6 988.8 -4.2 4
18 15.02 ЮЗ 2 10 км слаб. снег {метель} 10/6 600 м
[Sc As op]
-3.3 -3.7 97 -8 -8 тепло 1000.7 986.0

 

Местоположение метеостанции Казань (Татарстан, Россия): широта 55.73 долгота 49.20 высота над уровнем моря 119 м.

В архиве по умолчанию представлена погода в Казани за последнюю неделю. Архивные данные за месяц целиком и за предыдущие месяцы, начиная с января 2011 года, Вы можете получить, выбрав интересующий диапазон дат из раскрывающегося списка и нажав кнопку "Ввод!".


*Определитесь, кто Вы:
робот инопланетянин человек

Внимание! Время в таблицах - всемирное. Для получения местного времени необходимо прибавить поправку, которая равна 3 ч.

Смотрите также архив погоды в соседних городах и на ближайших метеорологических станциях:

Погода в Лаишево (Татарстан, Россия) (40 км)
Погода в Вязовых (Татарстан, Россия) (44 км)
Погода в Арске (Татарстан, Россия) (57 км)
Погода в Камском Устье (Татарстан, Россия) (58 км)
Погода в Больших Кайбицах (Татарстан, Россия) (74 км)
Погода в Алексеевском (Татарстан, Россия) (74 км)
Погода в Морках (Марий-Эл, Россия) (79 км)
Погода в Богатых Сабах (Татарстан, Россия) (84 км)
Погода в Тетюшах (Татарстан, Россия) (91 км)
Погода в Чистополе (Татарстан, Россия) (102 км)

Пояснения к столбцам:

Ветер - указаны скорость ветра в м/с - средняя за 10 мин, порывы в срок и между сроками (в фигурных скобках) и направление, откуда дует ветер: С - северный, СВ - северо-восточный, В - восточный, ЮВ - юго-восточный, Ю - южный, ЮЗ - юго-западный, З - западный, СЗ - северо-западный.
Видимость - горизонтальная дальность видимости в метрах или километрах. При видимости от 1 до 10 км при отсутствии осадков обычно наблюдается дымка, при ухудшении видимости до 1 км и менее - туман. В сухую погоду видимость может ухудшаться дымом, пылью или мглою.
Явления - указаны атмосферные явления, наблюдавшиеся в срок или в последний час перед сроком; фигурными скобками обозначены явления, наблюдавшиеся между сроками (за 1-3 часа до срока); квадратными скобками обозначены град или гололедные отложения с указанием их диаметра в мм.
Облачность - указаны через наклонную черту общая и нижняя облачность в баллах и высота нижней границы облаков в метрах; квадратными скобками обозначены формы облаков: Ci - перистые, Cs - перисто-слоистые, Cc - перисто-кучевые, Ac - высококучевые, As - высокослоистые, Sc - слоисто-кучевые, Ns - слоисто-дождевые, Cu - кучевые, Cb - кучево-дождевые. Подробнее классификацию облаков см. в Атласе облаков (PDF).
T - Температура воздуха - температура, измеренная на высоте 2 м над землей.
Td - Температура точки росы - температура, при понижении до которой содержащийся в воздухе водяной пар достигнет насыщения.
f - Относительная влажность воздуха - влажноcть воздуха, измеренная на высоте 2 м над землей.
Te - Эффективная температура - температура, которую ощущает одетый по сезону человек в тени. Характеристика душности погоды. При расчете учитывается влияние влажности воздуха и скорости ветра на теплоощущения человека.
Tes - Эффективная температура на солнце - температура, которую ощущает человек, с поправкой на солнечный нагрев. Характеристика знойности погоды. Зависит от высоты солнца над горизонтом, облачности и скорости ветра. Ночью, в пасмурную погоду, а также при ветре 12 м/с и более поправка равна нулю.
P - Атмосферное давление - приведенное к уровню моря атмосферное давление.
Po - Атмосферное давление - измеренное на уровне метеостанции атмосферное давление.
Tmin - Минимальная температура - минимум температуры воздуха на высоте 2 м над землей.
Tmax - Максимальная температура - максимум температуры воздуха на высоте 2 м над землей.
R - Количество осадков - Количество выпавших осадков за период времени, мм. При наведении курсора мыши на число - период времени, за который выпало указанное количество осадков.
R24 - Количество осадков - Количество выпавших осадков за 24 часа, мм.
S - Снежный покров - Высота снежного покрова, см. При наведении курсора мыши на число - состояние снежного покрова и степень покрытия местности в баллах.